When you browse on this site, cookies collect data to enhance your experience and personalize the content and advertising you see.
Visit our Privacy Policy to learn more. By continuing to use the site, you agree to this use of cookies and data.
  • Em Portugal
  • Lista de países
  • Para 7 dias
  • Temperatura da água
  • Mapas de satélite
  • Mapa do tempo
  • Widgets de tempo
  • user-avatar
    Iniciar Sessão

    Previsão horária em Rechytsa

    Hoje, 25 Maio, Sábado

    Tempo Temperatura Precipitação Vento Pressão Humidade
    00:00 +18°C° 1 mm 1 m/s 744 mmHg 81%
    01:00 +18°C° 1 mm 1 m/s 744 mmHg 85%
    02:00 +15°C° 0 mm 0 m/s 744 mmHg 89%
    03:00 +15°C° 0 mm 0 m/s 744 mmHg 89%
    04:00 +15°C° 0 mm 0 m/s 744 mmHg 88%
    05:00 +16°C° 0 mm 1 m/s 744 mmHg 88%
    06:00 +19°C° 0 mm 1 m/s 744 mmHg 83%
    07:00 +20°C° 0 mm 1 m/s 744 mmHg 79%
    08:00 +21°C° 0 mm 1 m/s 744 mmHg 73%
    09:00 +22°C° 0.3 mm 1 m/s 744 mmHg 66%
    10:00 +24°C° 0.3 mm 2 m/s 744 mmHg 60%
    11:00 +25°C° 0.3 mm 2 m/s 744 mmHg 54%
    12:00 +25°C° 0.2 mm 2 m/s 744 mmHg 53%
    13:00 +26°C° 0.2 mm 3 m/s 743 mmHg 53%
    14:00 +26°C° 0.2 mm 3 m/s 743 mmHg 53%
    15:00 +25°C° 0.8 mm 3 m/s 743 mmHg 58%
    16:00 +24°C° 0.8 mm 3 m/s 743 mmHg 64%
    17:00 +24°C° 0.8 mm 3 m/s 743 mmHg 69%
    18:00 +21°C° 0.2 mm 3 m/s 743 mmHg 75%
    19:00 +20°C° 0.2 mm 3 m/s 743 mmHg 80%
    20:00 +18°C° 0.2 mm 3 m/s 743 mmHg 86%
    21:00 +17°C° 0 mm 3 m/s 743 mmHg 87%
    22:00 +16°C° 0 mm 3 m/s 744 mmHg 89%
    23:00 +15°C° 0 mm 2 m/s 744 mmHg 91%

    Amanhã, 26 Maio, Domingo

    Tempo Temperatura Precipitação Vento Pressão Humidade
    00:00 +15°C° 0 mm 2 m/s 744 mmHg 92%
    01:00 +13°C° 0 mm 3 m/s 744 mmHg 92%
    02:00 +13°C° 0 mm 3 m/s 744 mmHg 92%
    03:00 +12°C° 0 mm 3 m/s 745 mmHg 92%
    04:00 +13°C° 0 mm 2 m/s 745 mmHg 91%
    05:00 +13°C° 0 mm 2 m/s 745 mmHg 90%
    06:00 +14°C° 0 mm 3 m/s 745 mmHg 84%
    07:00 +16°C° 0 mm 3 m/s 746 mmHg 77%
    08:00 +18°C° 0 mm 3 m/s 746 mmHg 71%
    09:00 +19°C° 0 mm 3 m/s 746 mmHg 66%
    10:00 +20°C° 0 mm 4 m/s 746 mmHg 62%
    11:00 +21°C° 0 mm 5 m/s 746 mmHg 57%
    12:00 +21°C° 0 mm 5 m/s 746 mmHg 54%
    13:00 +22°C° 0 mm 5 m/s 746 mmHg 51%
    14:00 +22°C° 0 mm 5 m/s 746 mmHg 48%
    15:00 +22°C° 0 mm 5 m/s 746 mmHg 50%
    16:00 +21°C° 0 mm 5 m/s 745 mmHg 52%
    17:00 +21°C° 0 mm 5 m/s 745 mmHg 54%
    18:00 +19°C° 0 mm 4 m/s 746 mmHg 61%
    19:00 +18°C° 0 mm 3 m/s 746 mmHg 68%
    20:00 +16°C° 0 mm 2 m/s 746 mmHg 75%
    21:00 +15°C° 0 mm 2 m/s 746 mmHg 78%
    22:00 +14°C° 0 mm 2 m/s 747 mmHg 82%
    23:00 +13°C° 0 mm 2 m/s 747 mmHg 85%

    Depois de amanhã, 27 Maio, Segunda-feira

    Tempo Temperatura Precipitação Vento Pressão Humidade
    00:00 +13°C° 0 mm 2 m/s 747 mmHg 86%
    01:00 +13°C° 0 mm 2 m/s 747 mmHg 88%
    02:00 +12°C° 0 mm 2 m/s 747 mmHg 89%
    03:00 +12°C° 0 mm 2 m/s 748 mmHg 90%
    04:00 +13°C° 0 mm 2 m/s 748 mmHg 91%
    05:00 +13°C° 0 mm 2 m/s 748 mmHg 92%
    06:00 +15°C° 0 mm 2 m/s 748 mmHg 84%
    07:00 +17°C° 0 mm 3 m/s 748 mmHg 75%
    08:00 +19°C° 0 mm 4 m/s 748 mmHg 67%
    09:00 +21°C° 0 mm 4 m/s 748 mmHg 62%
    10:00 +22°C° 0 mm 4 m/s 748 mmHg 56%
    11:00 +23°C° 0 mm 4 m/s 748 mmHg 51%
    12:00 +25°C° 0 mm 4 m/s 748 mmHg 49%
    13:00 +26°C° 0 mm 4 m/s 748 mmHg 47%
    14:00 +26°C° 0 mm 4 m/s 748 mmHg 45%
    15:00 +26°C° 0 mm 4 m/s 748 mmHg 48%
    16:00 +26°C° 0 mm 3 m/s 748 mmHg 51%
    17:00 +26°C° 0 mm 3 m/s 747 mmHg 54%
    18:00 +24°C° 0 mm 3 m/s 747 mmHg 62%
    19:00 +22°C° 0 mm 3 m/s 748 mmHg 69%
    20:00 +20°C° 0 mm 4 m/s 748 mmHg 77%
    21:00 +19°C° 0.4 mm 3 m/s 748 mmHg 82%
    22:00 +18°C° 0.4 mm 3 m/s 748 mmHg 88%
    23:00 +18°C° 0.4 mm 2 m/s 748 mmHg 94%

    28 Maio, Terça-feira

    Tempo Temperatura Precipitação Vento Pressão Humidade
    00:00 +18°C° 0.1 mm 2 m/s 748 mmHg 93%
    01:00 +18°C° 0.1 mm 2 m/s 748 mmHg 93%
    02:00 +18°C° 0.1 mm 2 m/s 748 mmHg 93%
    03:00 +17°C° 0 mm 2 m/s 748 mmHg 93%
    04:00 +17°C° 0 mm 2 m/s 748 mmHg 94%
    05:00 +17°C° 0 mm 2 m/s 748 mmHg 94%
    06:00 +19°C° 0 mm 2 m/s 748 mmHg 89%
    07:00 +21°C° 0 mm 2 m/s 748 mmHg 85%
    08:00 +22°C° 0 mm 3 m/s 748 mmHg 80%
    09:00 +25°C° 0.3 mm 4 m/s 748 mmHg 73%
    10:00 +26°C° 0.3 mm 5 m/s 748 mmHg 66%
    11:00 +27°C° 0.3 mm 6 m/s 748 mmHg 58%
    12:00 +28°C° 0 mm 6 m/s 748 mmHg 55%
    13:00 +28°C° 0 mm 7 m/s 747 mmHg 51%
    14:00 +29°C° 0 mm 7 m/s 747 mmHg 47%
    15:00 +28°C° 0 mm 6 m/s 747 mmHg 49%
    16:00 +28°C° 0 mm 6 m/s 747 mmHg 51%
    17:00 +27°C° 0 mm 5 m/s 746 mmHg 53%
    18:00 +26°C° 0 mm 5 m/s 747 mmHg 60%
    19:00 +23°C° 0 mm 4 m/s 747 mmHg 66%
    20:00 +22°C° 0 mm 4 m/s 747 mmHg 72%
    21:00 +21°C° 0 mm 4 m/s 747 mmHg 76%
    22:00 +20°C° 0 mm 4 m/s 747 mmHg 79%
    23:00 +20°C° 0 mm 4 m/s 747 mmHg 82%

    29 Maio, Quarta-feira

    Tempo Temperatura Precipitação Vento Pressão Humidade
    00:00 +20°C° 0 mm 4 m/s 747 mmHg 82%
    01:00 +19°C° 0 mm 4 m/s 747 mmHg 82%
    02:00 +19°C° 0 mm 5 m/s 747 mmHg 83%
    03:00 +19°C° 0 mm 5 m/s 747 mmHg 81%
    04:00 +17°C° 0 mm 5 m/s 747 mmHg 79%
    05:00 +17°C° 0 mm 5 m/s 747 mmHg 77%
    06:00 +20°C° 0 mm 6 m/s 747 mmHg 72%
    07:00 +21°C° 0 mm 6 m/s 747 mmHg 68%
    08:00 +22°C° 0 mm 7 m/s 747 mmHg 63%
    09:00 +23°C° 0 mm 7 m/s 747 mmHg 59%
    10:00 +26°C° 0 mm 7 m/s 747 mmHg 55%
    11:00 +27°C° 0 mm 7 m/s 747 mmHg 52%
    12:00 +28°C° 0 mm 7 m/s 746 mmHg 51%
    13:00 +28°C° 0 mm 7 m/s 746 mmHg 50%
    14:00 +29°C° 0 mm 7 m/s 746 mmHg 49%
    15:00 +29°C° 0 mm 7 m/s 746 mmHg 51%
    16:00 +28°C° 0 mm 7 m/s 746 mmHg 54%
    17:00 +28°C° 0 mm 6 m/s 746 mmHg 56%
    18:00 +26°C° 0.5 mm 5 m/s 746 mmHg 64%
    19:00 +23°C° 0.5 mm 4 m/s 746 mmHg 73%
    20:00 +21°C° 0.5 mm 3 m/s 746 mmHg 81%
    21:00 +21°C° 0 mm 3 m/s 746 mmHg 83%
    22:00 +20°C° 0 mm 3 m/s 746 mmHg 85%
    23:00 +20°C° 0 mm 3 m/s 747 mmHg 88%

    30 Maio, Quinta-feira

    Tempo Temperatura Precipitação Vento Pressão Humidade
    00:00 +19°C° 0 mm 3 m/s 747 mmHg 89%
    01:00 +18°C° 0 mm 2 m/s 747 mmHg 91%
    02:00 +18°C° 0 mm 2 m/s 747 mmHg 93%
    03:00 +18°C° 0.1 mm 2 m/s 747 mmHg 94%
    04:00 +18°C° 0.1 mm 2 m/s 748 mmHg 94%
    05:00 +19°C° 0.1 mm 1 m/s 748 mmHg 95%
    06:00 +20°C° 0.2 mm 1 m/s 748 mmHg 90%
    07:00 +22°C° 0.2 mm 1 m/s 749 mmHg 86%
    08:00 +23°C° 0.2 mm 1 m/s 749 mmHg 81%
    09:00 +24°C° 0.5 mm 1 m/s 749 mmHg 77%
    10:00 +25°C° 0.5 mm 2 m/s 749 mmHg 73%
    11:00 +26°C° 0.5 mm 2 m/s 750 mmHg 70%
    12:00 +26°C° 0.6 mm 3 m/s 750 mmHg 68%
    13:00 +26°C° 0.6 mm 3 m/s 750 mmHg 67%
    14:00 +26°C° 0.6 mm 3 m/s 750 mmHg 65%
    15:00 +26°C° 0.5 mm 3 m/s 750 mmHg 68%
    16:00 +25°C° 0.5 mm 3 m/s 751 mmHg 71%
    17:00 +25°C° 0.5 mm 3 m/s 751 mmHg 74%
    18:00 +24°C° 0.1 mm 3 m/s 751 mmHg 78%
    19:00 +21°C° 0.1 mm 3 m/s 751 mmHg 82%
    20:00 +20°C° 0.1 mm 2 m/s 751 mmHg 85%
    21:00 +19°C° 0 mm 2 m/s 751 mmHg 88%
    22:00 +19°C° 0 mm 2 m/s 751 mmHg 91%
    23:00 +18°C° 0 mm 2 m/s 751 mmHg 93%
    Mostrar mais